sat.trackr.live / text

‹ back to catalog

STARLINK-34020

NORAD 63939 · 2025-098P

PAYLOAD ACTIVE UNKNOWN

§ Identity

Operator
Country
US
Launch date
2025-05-13
Launch site
AFWTR
Launch vehicle
Mass (kg)
RCS (m²)

Purposes: comms

External: N2YO · Heavens-Above · Gunter

§ Orbital elements

Epoch: 2026-05-25T04:00:03.998880Z

Period
96.11 min
Inclination
70.0008°
Eccentricity
0.0003462
Mean motion
14.98315635 rev/d
Perigee alt
569.7 km
Apogee alt
574.5 km
Semi-major
6,950.2 km
B*
2.6147e-3
RAAN
81.5260°
Arg perigee
264.2102°
Mean anomaly
344.1554°
Rev number
570

§ Raw data

STARLINK-340201 63939U 25098P   26145.16671295  .00031234  00000+0  26147-2 0  99932 63939  70.0008  81.5260 0003462 264.2102 344.1554 14.98315635  5704

JSON: /api/v1/satellites/63939 · /tle

For live sub-satellite position, see the globe view (requires WebGL).

§ Visibility from observer

Set your observer location to see the next 7 days of passes ≥ 10°. The values pass through the URL so the page stays shareable.

No JS? Fill the form by hand. The geolocation button needs JavaScript.